TimeCST,TemperatureF,Dew PointF,Humidity,Sea Level PressureIn,VisibilityMPH,Wind Direction,Wind SpeedMPH,Gust SpeedMPH,PrecipitationIn,Events,Conditions,WindDirDegrees,DateUTC
12:53 AM,60.1,50.0,69,30.14,10.0,SSE,15.0,24.2,N/A,,Partly Cloudy,160,2012-11-12 06:53:00
1:53 AM,61.0,51.1,70,30.15,10.0,South,15.0,32.2,N/A,,Mostly Cloudy,180,2012-11-12 07:53:00
2:00 AM,60.8,51.8,72,30.19,10.0,South,11.5,27.6,N/A,,Mostly Cloudy,180,2012-11-12 08:00:00
2:53 AM,61.0,52.0,72,30.16,10.0,South,16.1,26.5,N/A,,Overcast,170,2012-11-12 08:53:00
3:07 AM,60.8,51.8,72,30.18,10.0,South,12.7,24.2,N/A,,Overcast,180,2012-11-12 09:07:00
3:53 AM,60.1,52.0,75,30.15,10.0,South,8.1,31.1,N/A,,Overcast,180,2012-11-12 09:53:00
4:53 AM,60.1,52.0,75,30.19,10.0,SSW,12.7,26.5,N/A,,Overcast,200,2012-11-12 10:53:00
5:53 AM,60.1,52.0,75,30.17,8.0,South,11.5,28.8,0.00,Rain,Light Rain,180,2012-11-12 11:53:00
6:53 AM,59.0,54.0,83,30.18,10.0,South,11.5,21.9,0.01,,Overcast,180,2012-11-12 12:53:00
7:36 AM,57.2,55.4,94,30.17,1.8,SSE,16.1,28.8,0.05,Rain,Rain,160,2012-11-12 13:36:00
7:43 AM,57.2,55.4,94,30.17,2.5,South,13.8,26.5,0.07,Rain,Rain,170,2012-11-12 13:43:00
7:50 AM,57.2,55.4,94,30.16,6.0,SSE,11.5,25.3,0.07,Rain,Light Rain,160,2012-11-12 13:50:00
7:53 AM,57.9,55.0,90,30.13,8.0,SSE,13.8,27.6,0.07,Rain,Light Rain,160,2012-11-12 13:53:00
8:09 AM,57.2,55.4,94,30.17,7.0,SSE,8.1,32.2,0.00,Rain,Light Rain,160,2012-11-12 14:09:00
8:53 AM,59.0,55.0,87,30.14,10.0,South,12.7,27.6,0.02,Rain,Light Rain,170,2012-11-12 14:53:00
9:53 AM,59.0,55.0,87,30.14,8.0,South,11.5,31.1,0.02,Rain,Light Rain,190,2012-11-12 15:53:00
10:32 AM,59.0,55.4,88,30.18,1.8,South,9.2,25.3,0.04,Rain,Heavy Rain,190,2012-11-12 16:32:00
10:47 AM,59.0,55.4,88,30.17,3.0,SSW,9.2,18.4,0.09,Rain,Light Rain,200,2012-11-12 16:47:00
10:53 AM,59.0,55.9,90,30.14,4.0,Variable,6.9,-,0.10,Rain,Light Rain,0,2012-11-12 16:53:00
10:57 AM,59.0,55.4,88,30.16,2.0,South,10.4,17.3,0.02,Rain,Rain,190,2012-11-12 16:57:00
11:00 AM,59.0,55.4,88,30.16,1.8,South,10.4,20.7,0.02,Rain,Rain,190,2012-11-12 17:00:00
11:08 AM,59.0,55.4,88,30.17,3.0,Variable,6.9,21.9,0.04,Rain,Light Rain,0,2012-11-12 17:08:00
11:16 AM,59.0,55.4,88,30.18,1.8,WSW,12.7,17.3,0.08,Rain,Rain,240,2012-11-12 17:16:00
11:29 AM,51.8,50.0,94,30.19,2.5,West,12.7,24.2,0.13,Rain,Rain,280,2012-11-12 17:29:00
11:36 AM,51.8,48.2,88,30.19,3.0,WNW,11.5,19.6,0.13,Rain,Light Rain,300,2012-11-12 17:36:00
11:53 AM,51.1,48.9,92,30.17,3.0,West,8.1,-,0.15,Rain,Light Rain,270,2012-11-12 17:53:00
12:12 PM,51.8,48.2,88,30.20,2.5,West,9.2,-,0.02,Rain,Light Rain,270,2012-11-12 18:12:00
12:46 PM,51.8,48.2,88,30.21,1.5,WNW,8.1,-,0.09,Rain,Rain,300,2012-11-12 18:46:00
12:53 PM,50.0,48.0,93,30.19,3.0,WNW,8.1,-,0.10,Rain,Light Rain,290,2012-11-12 18:53:00
1:07 PM,50.0,48.2,94,30.22,3.0,WNW,9.2,-,0.02,Rain,Rain,300,2012-11-12 19:07:00
1:21 PM,50.0,48.2,94,30.22,2.5,WNW,8.1,-,0.05,Rain,Rain,290,2012-11-12 19:21:00
1:24 PM,50.0,48.2,94,30.22,1.8,WNW,8.1,-,0.06,Rain,Rain,290,2012-11-12 19:24:00
1:30 PM,50.0,48.2,94,30.22,2.0,WNW,5.8,-,0.08,Rain,Rain,290,2012-11-12 19:30:00
1:41 PM,50.0,48.2,94,30.22,4.0,West,6.9,-,0.10,Rain,Light Rain,280,2012-11-12 19:41:00
1:53 PM,50.0,48.0,93,30.21,3.0,WNW,10.4,19.6,0.11,Rain,Light Rain,300,2012-11-12 19:53:00
2:02 PM,46.4,44.6,93,30.24,3.0,NW,13.8,23.0,0.01,Rain,Light Rain,310,2012-11-12 20:02:00
2:12 PM,44.6,42.8,93,30.25,3.0,NW,13.8,26.5,0.02,Rain,Rain,310,2012-11-12 20:12:00
2:14 PM,44.6,42.8,93,30.25,2.5,NW,15.0,20.7,0.02,Rain,Light Rain,320,2012-11-12 20:14:00
2:21 PM,44.6,42.8,93,30.26,3.0,NW,12.7,20.7,0.02,Rain,Light Rain,310,2012-11-12 20:21:00
2:53 PM,44.1,42.1,93,30.25,10.0,NW,9.2,-,0.03,,Overcast,320,2012-11-12 20:53:00
3:53 PM,42.1,39.9,92,30.28,10.0,NW,11.5,17.3,0.02,,Overcast,320,2012-11-12 21:53:00
4:14 PM,41.0,37.4,87,30.29,10.0,NW,9.2,-,N/A,,Mostly Cloudy,320,2012-11-12 22:14:00
4:53 PM,39.9,36.0,86,30.30,10.0,NW,9.2,-,N/A,,Overcast,320,2012-11-12 22:53:00
5:53 PM,37.0,34.0,89,30.33,10.0,NNW,6.9,-,N/A,,Clear,340,2012-11-12 23:53:00
6:53 PM,35.1,32.0,89,30.36,10.0,NNW,5.8,-,N/A,,Clear,330,2012-11-13 00:53:00
7:37 PM,35.6,32.0,87,30.37,10.0,Calm,Calm,-,N/A,,Partly Cloudy,0,2012-11-13 01:37:00
7:53 PM,34.0,32.0,92,30.38,10.0,NNW,5.8,-,N/A,,Partly Cloudy,330,2012-11-13 01:53:00
8:53 PM,32.0,30.0,92,30.39,3.0,Calm,Calm,-,N/A,,Clear,0,2012-11-13 02:53:00
9:53 PM,32.0,30.0,92,30.40,8.0,NNW,3.5,-,N/A,,Clear,330,2012-11-13 03:53:00
10:53 PM,30.9,28.9,92,30.41,9.0,North,3.5,-,N/A,,Clear,360,2012-11-13 04:53:00
11:53 PM,30.0,28.0,92,30.42,10.0,North,4.6,-,N/A,,Clear,10,2012-11-13 05:53:00